User: anonymous   Login
Location: Caltech
(34.1382°N, 118.1253°W)
Time: 08:59:18
(UTC-07:00)
Language:

Cosmos 1758 Rocket - Orbit

View from above orbital plane
View from above orbital plane
View from above satellite
View from above satellite

Ground track
Ground track

The orbit data is extracted from the following two-line orbital elements,

1 16792U 86046B   15118.21723726  .00000440  00000-0  51158-4 0  9997
2 16792 082.4852 217.1330 0023930 347.5887 072.9047 14.82894387559138
Epoch (UTC): 28 April 2015 05:12:49
Eccentricity: 0.0023930
inclination: 82.4852°
perigee height: 603 km
apogee height: 637 km
right ascension of ascending node: 217.1330°
argument of perigee: 347.5887°
revolutions per day: 14.82894387
mean anomaly at epoch: 72.9047°
orbit number at epoch: 55913

The dashed part of the orbit path shows where the satellite is in the earth's shadow,  

DLR